This is the latest recevied weather packets stored in our database for station/object N9BLE. If no packets are shown the sender has not sent any weather packets the latest 1 day(s).
| Time | Temp. | Humidity | Pressure | Rain* | Wind** | Luminosity | Snow |
|---|---|---|---|---|---|---|---|
| 1777988744 | 10° C | 62% | 1013.3 hPa | 0 mm | 0 m/s | 119 W/m² | - |
| 1777988442 | 9.44° C | 65% | 1013.4 hPa | 0 mm | 0.45 m/s, 346° | 111 W/m² | - |
| 1777988139 | 9.44° C | 65% | 1013.4 hPa | 0 mm | 0 m/s | 83 W/m² | - |
| 1777987834 | 9.44° C | 61% | 1013.4 hPa | 0 mm | 0.45 m/s, 329° | 92 W/m² | - |
| 1777987531 | 9.44° C | 62% | 1013.5 hPa | 0 mm | 0.89 m/s, 280° | 97 W/m² | - |
| 1777987229 | 9.44° C | 63% | 1013.5 hPa | 0 mm | 0.45 m/s, 277° | 93 W/m² | - |
| 1777986925 | 9.44° C | 65% | 1013.4 hPa | 0 mm | 0 m/s | 96 W/m² | - |
| 1777986624 | 8.89° C | 64% | 1013.5 hPa | 0 mm | 0.45 m/s, 328° | 104 W/m² | - |
| 1777986321 | 8.89° C | 69% | 1013.5 hPa | 0 mm | 0.45 m/s, 336° | 99 W/m² | - |
| 1777986020 | 8.89° C | 70% | 1013.4 hPa | 0 mm | 0.45 m/s, 343° | 99 W/m² | - |
| 1777985716 | 8.89° C | 72% | 1013.2 hPa | 0 mm | 0.45 m/s, 343° | 88 W/m² | - |
| 1777985413 | 8.89° C | 72% | 1013 hPa | 0 mm | 0 m/s | 74 W/m² | - |
| 1777985109 | 8.33° C | 72% | 1012.7 hPa | 0 mm | 0 m/s | 67 W/m² | - |
| 1777984806 | 8.33° C | 70% | 1012.4 hPa | 0 mm | 0 m/s | 60 W/m² | - |
| 1777984502 | 8.33° C | 71% | 1012.8 hPa | 0 mm | 0 m/s | 39 W/m² | - |
| 1777984198 | 8.33° C | 67% | 1012.9 hPa | 0 mm | 0 m/s | 25 W/m² | - |
| 1777983895 | 8.33° C | 67% | 1012.9 hPa | 0 mm | 0 m/s | 26 W/m² | - |
| 1777983592 | 8.33° C | 66% | 1013.6 hPa | 0 mm | 0 m/s | 17 W/m² | - |
| 1777983289 | 7.78° C | 65% | 1013 hPa | 0 mm | 0 m/s | 17 W/m² | - |
| 1777982985 | 7.78° C | 68% | 1012.5 hPa | 0 mm | 0 m/s | 7 W/m² | - |
| 1777982682 | 7.78° C | 69% | 1012.8 hPa | 0 mm | 0 m/s | 6 W/m² | - |
| 1777982381 | 7.78° C | 67% | 1012.7 hPa | 0 mm | 0 m/s | 7 W/m² | - |
| 1777982077 | 7.78° C | 69% | 1012.5 hPa | 0 mm | 0 m/s | 7 W/m² | - |
| 1777981776 | 7.78° C | 68% | 1012.8 hPa | 0 mm | 0 m/s | 6 W/m² | - |
| 1777981471 | 7.78° C | 68% | 1013.1 hPa | 0 mm | 0 m/s | 5 W/m² | - |
* Rain latest hour (hover to see other rain measurements)
** Current wind speed in m/s (hover to see current wind gust speed)